Total_Precipitation_Accumulation
1.87 2.12 1.67 1.05 0.84 0.73 0.69 0.58 0.45 0.36 0.42 0.58 0.55 0.47 0.55 0.55 0.59 0.58 0.60 0.66 0.73 0.93 1.10 1.33 1.65 2.02 2.32 2.52 2.83 2.98 3.23 3.51 3.61 3.57 3.33 3.15 3.03 3.05 2.91 2.56 2.25 2.18 2.09 1.97
1.83 1.61 0.92 0.67 0.75 0.83 0.84 0.78 0.55 0.40 0.35 0.53 0.56 0.50 0.53 0.55 0.58 0.58 0.60 0.60 0.65 0.76 0.95 1.19 1.58 1.78 1.99 2.23 2.41 2.72 2.84 3.19 3.31 3.22 3.21 3.12 3.12 3.12 3.08 2.92 2.64 2.47 2.35 2.20
1.36 0.98 0.73 0.83 0.99 1.06 0.91 0.77 0.64 0.57 0.50 0.60 0.69 0.67 0.54 0.53 0.51 0.46 0.48 0.48 0.57 0.66 0.77 0.98 1.33 1.61 1.73 1.97 2.24 2.36 2.50 2.77 3.09 3.21 3.37 3.51 3.52 3.32 3.11 2.99 2.91 2.72 2.61 2.47
1.16 0.81 0.87 0.95 0.95 1.01 0.95 0.58 0.63 0.69 0.89 0.89 0.73 0.93 0.64 0.51 0.45 0.42 0.45 0.44 0.51 0.62 0.71 0.84 0.97 1.23 1.43 1.62 2.00 2.31 2.51 2.67 2.88 3.28 3.31 3.22 3.13 2.93 2.69 2.74 2.86 2.87 2.78 2.70
1.21 0.89 1.00 1.04 0.73 0.79 0.86 0.59 0.69 0.81 0.98 1.00 0.69 0.80 0.66 0.44 0.45 0.44 0.47 0.48 0.58 0.72 0.78 0.83 0.88 1.02 1.18 1.36 1.72 2.08 2.35 2.67 2.89 3.04 3.13 3.18 2.99 2.78 2.73 2.74 2.79 2.74 2.70 2.67
0.90 0.89 1.09 0.97 0.65 0.73 0.93 0.97 1.07 1.14 1.49 1.50 0.65 0.65 0.64 0.52 0.53 0.50 0.49 0.52 0.64 0.75 0.81 0.81 0.87 0.97 1.12 1.23 1.45 1.81 2.09 2.24 2.53 2.84 2.92 2.97 2.95 2.90 2.83 2.66 2.63 2.68 2.68 2.66
1.14 1.01 1.02 1.00 1.06 1.11 1.37 1.96 2.61 2.57 2.23 1.21 0.45 0.51 0.59 0.52 0.55 0.58 0.60 0.62 0.67 0.71 0.74 0.77 0.83 0.95 1.11 1.26 1.38 1.51 1.72 1.85 2.03 2.30 2.51 2.59 2.72 2.83 2.73 2.57 2.40 2.42 2.46 2.47
1.28 1.26 0.98 1.14 1.33 1.47 1.41 1.69 2.02 1.70 1.08 0.62 0.43 0.51 0.57 0.52 0.55 0.57 0.59 0.60 0.61 0.68 0.72 0.74 0.75 0.82 0.95 1.14 1.32 1.36 1.46 1.58 1.75 1.90 2.05 2.26 2.46 2.67 2.67 2.60 2.35 2.24 2.22 2.22
1.15 1.07 0.75 0.91 0.97 1.07 1.29 1.28 1.15 1.43 0.91 0.61 0.50 0.46 0.44 0.40 0.41 0.47 0.52 0.52 0.58 0.68 0.70 0.69 0.69 0.72 0.85 0.98 1.16 1.24 1.33 1.42 1.51 1.64 1.79 1.96 2.13 2.28 2.37 2.46 2.39 2.27 2.21 2.18
1.18 1.21 0.83 0.89 1.13 1.10 1.05 1.06 1.31 1.83 1.47 0.89 0.52 0.40 0.53 0.50 0.48 0.50 0.51 0.57 0.66 0.71 0.67 0.62 0.65 0.73 0.84 0.88 1.01 1.16 1.26 1.32 1.34 1.43 1.54 1.63 1.79 2.01 2.13 2.24 2.21 2.14 2.16 2.17
1.09 1.38 1.09 1.14 1.37 1.14 1.01 1.26 1.48 1.50 1.20 1.05 0.77 0.65 0.65 0.60 0.56 0.56 0.56 0.59 0.69 0.73 0.69 0.68 0.69 0.78 0.90 0.88 0.95 1.11 1.21 1.33 1.36 1.36 1.41 1.44 1.46 1.59 1.79 1.96 2.06 2.01 2.05 2.11
1.04 1.41 1.19 0.96 0.80 0.75 0.87 0.97 1.21 1.62 1.22 0.88 0.84 0.83 0.65 0.59 0.55 0.53 0.55 0.58 0.63 0.66 0.66 0.71 0.76 0.75 0.81 0.91 0.99 1.08 1.14 1.29 1.40 1.42 1.41 1.44 1.43 1.41 1.51 1.63 1.83 1.90 1.98 2.00
1.31 1.65 1.46 1.21 1.07 0.96 1.01 0.84 0.93 1.28 1.46 1.13 0.99 0.85 0.61 0.51 0.49 0.50 0.52 0.56 0.62 0.67 0.66 0.63 0.70 0.75 0.76 0.84 1.02 1.11 1.16 1.24 1.33 1.41 1.44 1.42 1.39 1.34 1.32 1.40 1.56 1.67 1.77 1.81
1.45 1.56 1.32 1.19 1.08 0.99 0.90 0.71 0.82 1.44 1.74 1.08 0.78 0.72 0.58 0.52 0.54 0.53 0.53 0.60 0.66 0.67 0.66 0.61 0.66 0.71 0.74 0.79 0.88 0.97 1.09 1.12 1.24 1.34 1.43 1.46 1.43 1.39 1.33 1.38 1.44 1.52 1.57 1.64
1.31 1.51 0.99 0.72 0.59 0.64 0.67 0.57 0.68 1.08 1.13 1.13 0.75 0.63 0.69 0.67 0.64 0.58 0.56 0.56 0.57 0.59 0.61 0.62 0.64 0.66 0.67 0.66 0.66 0.74 0.87 0.98 1.06 1.19 1.35 1.43 1.50 1.56 1.58 1.52 1.47 1.46 1.46 1.52
1.02 1.29 0.99 0.74 0.49 0.48 0.52 0.46 0.52 0.66 0.71 0.79 0.64 0.66 0.59 0.57 0.52 0.51 0.54 0.53 0.52 0.55 0.56 0.55 0.56 0.61 0.64 0.63 0.62 0.64 0.71 0.84 0.89 0.99 1.12 1.24 1.38 1.53 1.68 1.71 1.64 1.56 1.48 1.48
0.89 1.07 1.15 0.78 0.44 0.59 0.74 0.63 0.63 0.67 0.68 0.75 0.81 0.74 0.56 0.55 0.58 0.64 0.62 0.56 0.52 0.51 0.52 0.49 0.50 0.55 0.56 0.57 0.59 0.63 0.65 0.75 0.83 0.85 0.90 1.02 1.21 1.35 1.50 1.68 1.76 1.66 1.60 1.64
0.73 0.95 1.27 0.95 0.70 0.89 0.68 0.46 0.49 0.58 0.65 0.68 0.69 0.58 0.51 0.56 0.61 0.62 0.61 0.58 0.53 0.47 0.45 0.44 0.47 0.50 0.48 0.49 0.52 0.54 0.59 0.67 0.79 0.84 0.87 0.97 1.07 1.20 1.39 1.56 1.70 1.77 1.75 1.81
0.48 0.92 1.39 1.16 0.91 0.59 0.36 0.30 0.47 0.60 0.65 0.52 0.49 0.46 0.39 0.38 0.42 0.49 0.54 0.54 0.54 0.50 0.45 0.43 0.44 0.47 0.44 0.46 0.51 0.52 0.54 0.64 0.73 0.80 0.85 0.90 0.99 1.09 1.25 1.44 1.60 1.72 1.78 1.84
0.49 0.83 1.49 1.30 1.06 0.66 0.43 0.24 0.29 0.51 0.77 0.41 0.37 0.41 0.39 0.36 0.51 0.57 0.55 0.56 0.50 0.48 0.46 0.46 0.44 0.42 0.42 0.48 0.53 0.55 0.59 0.64 0.75 0.79 0.83 0.86 0.94 1.02 1.13 1.28 1.46 1.61 1.70 1.73
0.68 1.10 1.36 1.12 1.04 0.59 0.40 0.23 0.23 0.70 0.92 0.44 0.39 0.42 0.44 0.51 0.60 0.58 0.52 0.48 0.46 0.44 0.45 0.50 0.52 0.51 0.53 0.58 0.60 0.62 0.63 0.68 0.72 0.75 0.81 0.85 0.91 0.98 1.06 1.12 1.21 1.34 1.42 1.43
0.60 0.76 0.79 0.82 1.04 0.72 0.40 0.34 0.62 0.82 0.53 0.43 0.42 0.45 0.52 0.54 0.48 0.47 0.49 0.48 0.45 0.46 0.48 0.52 0.56 0.57 0.60 0.62 0.63 0.61 0.65 0.71 0.72 0.73 0.78 0.85 0.90 0.90 0.91 0.95 1.01 1.05 1.09 1.14
0.57 0.72 0.75 0.75 0.85 0.73 0.60 0.69 0.73 0.64 0.56 0.49 0.48 0.48 0.52 0.56 0.56 0.54 0.55 0.55 0.52 0.51 0.54 0.54 0.54 0.54 0.56 0.63 0.69 0.70 0.70 0.70 0.70 0.72 0.75 0.79 0.81 0.82 0.84 0.86 0.89 0.94 0.97 1.00
0.48 0.48 0.59 0.62 0.61 0.54 0.50 0.49 0.48 0.49 0.53 0.52 0.50 0.51 0.50 0.54 0.57 0.57 0.59 0.61 0.61 0.60 0.57 0.55 0.53 0.52 0.56 0.59 0.63 0.67 0.65 0.65 0.64 0.68 0.69 0.71 0.71 0.73 0.76 0.80 0.85 0.92 0.97 0.95
0.49 0.46 0.51 0.54 0.48 0.38 0.35 0.38 0.39 0.37 0.35 0.37 0.38 0.41 0.46 0.48 0.53 0.55 0.58 0.58 0.60 0.60 0.59 0.55 0.54 0.54 0.57 0.58 0.60 0.63 0.63 0.61 0.61 0.62 0.61 0.61 0.63 0.67 0.73 0.77 0.84 0.92 0.98 1.03
0.51 0.55 0.61 0.61 0.47 0.47 0.44 0.39 0.35 0.34 0.34 0.35 0.36 0.38 0.40 0.43 0.50 0.50 0.52 0.53 0.54 0.56 0.56 0.54 0.52 0.54 0.55 0.54 0.58 0.61 0.62 0.63 0.62 0.61 0.60 0.61 0.60 0.63 0.70 0.75 0.82 0.93 0.98 1.03